Year,Month,Day,Hour,Minute,Value (Times are PST for temperature in C)
2013,07,26,00,00,15.80
2013,07,26,00,01,15.80
2013,07,26,00,02,15.80
2013,07,26,00,03,15.80
2013,07,26,00,04,15.80
2013,07,26,00,05,15.80
2013,07,26,00,06,15.80
2013,07,26,00,07,15.80
2013,07,26,00,08,15.70
2013,07,26,00,09,15.70
2013,07,26,00,10,15.70
2013,07,26,00,11,15.70
2013,07,26,00,12,15.70
2013,07,26,00,16,15.60
2013,07,26,00,17,15.60
2013,07,26,00,18,15.60
2013,07,26,00,19,15.60
2013,07,26,00,20,15.50
2013,07,26,00,21,15.50
2013,07,26,00,22,15.50
2013,07,26,00,23,15.50
2013,07,26,00,24,15.40
2013,07,26,00,25,15.40
2013,07,26,00,26,15.40
2013,07,26,00,27,15.40
2013,07,26,00,28,15.30
2013,07,26,00,29,15.30
2013,07,26,00,30,15.30
2013,07,26,00,31,15.30
2013,07,26,00,32,15.30
2013,07,26,00,33,15.30
2013,07,26,00,34,15.30
2013,07,26,00,35,15.30
2013,07,26,00,36,15.30
2013,07,26,00,37,15.30
2013,07,26,00,38,15.30
2013,07,26,00,39,15.30
2013,07,26,00,40,15.30
2013,07,26,00,41,15.30
2013,07,26,00,42,15.30
2013,07,26,00,43,15.30
2013,07,26,00,44,15.30
2013,07,26,00,45,15.30
2013,07,26,00,46,15.30
2013,07,26,00,47,15.30
2013,07,26,00,48,15.30
2013,07,26,00,49,15.30
2013,07,26,00,50,15.30
2013,07,26,00,51,15.30
2013,07,26,00,52,15.30
2013,07,26,00,53,15.30
2013,07,26,00,54,15.40
2013,07,26,00,55,15.40
2013,07,26,00,56,15.40
2013,07,26,00,57,15.40
2013,07,26,00,58,15.50
2013,07,26,00,59,15.50
2013,07,26,01,00,15.50
2013,07,26,01,01,15.50
2013,07,26,01,02,15.60
2013,07,26,01,03,15.60
2013,07,26,01,04,15.60
2013,07,26,01,05,15.70
2013,07,26,01,06,15.70
2013,07,26,01,07,15.70
2013,07,26,01,08,15.70
2013,07,26,01,09,15.70
2013,07,26,01,10,15.80
2013,07,26,01,11,15.80
2013,07,26,01,12,15.80
2013,07,26,01,13,15.80
2013,07,26,01,14,15.80
2013,07,26,01,15,15.70
2013,07,26,01,16,15.70
2013,07,26,01,17,15.70
2013,07,26,01,18,15.70
2013,07,26,01,19,15.70
2013,07,26,01,20,15.70
2013,07,26,01,21,15.60
2013,07,26,01,22,15.60
2013,07,26,01,23,15.60
2013,07,26,01,24,15.60
2013,07,26,01,25,15.60
2013,07,26,01,26,15.50
2013,07,26,01,27,15.50
2013,07,26,01,28,15.50
2013,07,26,01,29,15.50
2013,07,26,01,30,15.50
2013,07,26,01,31,15.50
2013,07,26,01,32,15.50
2013,07,26,01,33,15.40
2013,07,26,01,34,15.40
2013,07,26,01,35,15.40
2013,07,26,01,36,15.40
2013,07,26,01,37,15.40
2013,07,26,01,38,15.40
2013,07,26,01,39,15.30
2013,07,26,01,40,15.30
2013,07,26,01,41,15.30
2013,07,26,01,42,15.30
2013,07,26,01,43,15.30
2013,07,26,01,44,15.30
2013,07,26,01,45,15.30
2013,07,26,01,46,15.30
2013,07,26,01,47,15.30
2013,07,26,01,48,15.30
2013,07,26,01,49,15.30
2013,07,26,01,50,15.30
2013,07,26,01,51,15.30
2013,07,26,01,52,15.30
2013,07,26,01,53,15.30
2013,07,26,01,54,15.30
2013,07,26,01,55,15.30
2013,07,26,01,56,15.30
2013,07,26,01,57,15.30
2013,07,26,01,58,15.30
2013,07,26,01,59,15.30
2013,07,26,02,00,15.30
2013,07,26,02,01,15.30
2013,07,26,02,02,15.30
2013,07,26,02,03,15.30
2013,07,26,02,04,15.30
2013,07,26,02,05,15.30
2013,07,26,02,06,15.30
2013,07,26,02,07,15.30
2013,07,26,02,08,15.30
2013,07,26,02,09,15.30
2013,07,26,02,10,15.30
2013,07,26,02,11,15.30
2013,07,26,02,12,15.30
2013,07,26,02,13,15.30
2013,07,26,02,14,15.30
2013,07,26,02,15,15.30
2013,07,26,02,16,15.30
2013,07,26,02,17,15.30
2013,07,26,02,18,15.30
2013,07,26,02,19,15.30
2013,07,26,02,20,15.30
2013,07,26,02,21,15.30
2013,07,26,02,22,15.30
2013,07,26,02,23,15.30
2013,07,26,02,24,15.30
2013,07,26,02,25,15.30
2013,07,26,02,26,15.30
2013,07,26,02,27,15.30
2013,07,26,02,28,15.30
2013,07,26,02,29,15.30
2013,07,26,02,30,15.30
2013,07,26,02,31,15.30
2013,07,26,02,32,15.30
2013,07,26,02,33,15.30
2013,07,26,02,34,15.30
2013,07,26,02,35,15.30
2013,07,26,02,36,15.30
2013,07,26,02,37,15.30
2013,07,26,02,38,15.30
2013,07,26,02,39,15.30
2013,07,26,02,40,15.30
2013,07,26,02,41,15.30
2013,07,26,02,42,15.30
2013,07,26,02,43,15.30
2013,07,26,02,44,15.30
2013,07,26,02,45,15.30
2013,07,26,02,46,15.30
2013,07,26,02,47,15.30
2013,07,26,02,48,15.30
2013,07,26,02,49,15.30
2013,07,26,02,50,15.30
2013,07,26,02,51,15.30
2013,07,26,02,52,15.30
2013,07,26,02,53,15.30
2013,07,26,02,54,15.30
2013,07,26,02,55,15.20
2013,07,26,02,56,15.30
2013,07,26,02,57,15.30
2013,07,26,02,58,15.30
2013,07,26,02,59,15.30
2013,07,26,03,00,15.30
2013,07,26,03,01,15.30
2013,07,26,03,02,15.30
2013,07,26,03,03,15.30
2013,07,26,03,04,15.30
2013,07,26,03,05,15.30
2013,07,26,03,06,15.30
2013,07,26,03,07,15.30
2013,07,26,03,08,15.30
2013,07,26,03,09,15.30
2013,07,26,03,10,15.30
2013,07,26,03,11,15.30
2013,07,26,03,12,15.30
2013,07,26,03,13,15.20
2013,07,26,03,14,15.20
2013,07,26,03,15,15.20
2013,07,26,03,16,15.20
2013,07,26,03,17,15.20
2013,07,26,03,18,15.20
2013,07,26,03,19,15.20
2013,07,26,03,20,15.20
2013,07,26,03,21,15.10
2013,07,26,03,22,15.10
2013,07,26,03,23,15.10
2013,07,26,03,24,15.00
2013,07,26,03,25,15.00
2013,07,26,03,26,15.00
2013,07,26,03,27,15.00
2013,07,26,03,28,14.90
2013,07,26,03,29,14.90
2013,07,26,03,30,14.90
2013,07,26,03,31,14.90
2013,07,26,03,32,14.90
2013,07,26,03,33,14.90
2013,07,26,03,34,14.90
2013,07,26,03,35,14.90
2013,07,26,03,36,14.90
2013,07,26,03,37,14.90
2013,07,26,03,38,14.80
2013,07,26,03,39,14.80
2013,07,26,03,40,14.80
2013,07,26,03,41,14.80
2013,07,26,03,42,14.80
2013,07,26,03,43,14.80
2013,07,26,03,44,14.70
2013,07,26,03,45,14.70
2013,07,26,03,46,14.70
2013,07,26,03,47,14.70
2013,07,26,03,48,14.70
2013,07,26,03,49,14.70
2013,07,26,03,50,14.70
2013,07,26,03,51,14.70
2013,07,26,03,52,14.70
2013,07,26,03,53,14.70
2013,07,26,03,54,14.70
2013,07,26,03,55,14.60
2013,07,26,03,56,14.60
2013,07,26,03,57,14.60
2013,07,26,03,58,14.60
2013,07,26,03,59,14.60
2013,07,26,04,00,14.60
2013,07,26,04,01,14.60
2013,07,26,04,02,14.60
2013,07,26,04,03,14.60
2013,07,26,04,04,14.60
2013,07,26,04,05,14.60
2013,07,26,04,06,14.60
2013,07,26,04,07,14.60
2013,07,26,04,08,14.60
2013,07,26,04,09,14.60
2013,07,26,04,10,14.60
2013,07,26,04,11,14.60
2013,07,26,04,12,14.60
2013,07,26,04,13,14.60
2013,07,26,04,14,14.60
2013,07,26,04,15,14.60
2013,07,26,04,16,14.60
2013,07,26,04,17,14.60
2013,07,26,04,18,14.60
2013,07,26,04,19,14.60
2013,07,26,04,20,14.50
2013,07,26,04,21,14.50
2013,07,26,04,22,14.50
2013,07,26,04,23,14.50
2013,07,26,04,24,14.40
2013,07,26,04,25,14.40
2013,07,26,04,26,14.40
2013,07,26,04,27,14.30
2013,07,26,04,28,14.30
2013,07,26,04,29,14.30
2013,07,26,04,30,14.20
2013,07,26,04,31,14.20
2013,07,26,04,32,14.20
2013,07,26,04,33,14.20
2013,07,26,04,34,14.20
2013,07,26,04,35,14.20
2013,07,26,04,36,14.20
2013,07,26,04,37,14.20
2013,07,26,04,38,14.20
2013,07,26,04,39,14.10
2013,07,26,04,40,14.10
2013,07,26,04,41,14.10
2013,07,26,04,42,14.10
2013,07,26,04,43,14.00
2013,07,26,04,44,14.00
2013,07,26,04,45,14.00
2013,07,26,04,46,14.00
2013,07,26,04,47,14.00
2013,07,26,04,48,14.00
2013,07,26,04,49,14.00
2013,07,26,04,50,14.00
2013,07,26,04,51,14.00
2013,07,26,04,52,14.00
2013,07,26,04,53,14.00
2013,07,26,04,54,14.00
2013,07,26,04,55,13.90
2013,07,26,04,56,13.90
2013,07,26,04,57,13.90
2013,07,26,04,58,13.90
2013,07,26,04,59,13.90
2013,07,26,05,00,13.90
2013,07,26,05,01,13.90
2013,07,26,05,02,13.90
2013,07,26,05,03,13.90
2013,07,26,05,04,13.90
2013,07,26,05,05,13.90
2013,07,26,05,06,13.90
2013,07,26,05,07,13.90
2013,07,26,05,08,13.80
2013,07,26,05,09,13.80
2013,07,26,05,10,13.80
2013,07,26,05,11,13.80
2013,07,26,05,12,13.80
2013,07,26,05,13,13.70
2013,07,26,05,14,13.70
2013,07,26,05,15,13.70
2013,07,26,05,16,13.70
2013,07,26,05,17,13.70
2013,07,26,05,18,13.70
2013,07,26,05,19,13.70
2013,07,26,05,20,13.70
2013,07,26,05,21,13.70
2013,07,26,05,22,13.70
2013,07,26,05,23,13.60
2013,07,26,05,24,13.60
2013,07,26,05,25,13.60
2013,07,26,05,26,13.60
2013,07,26,05,27,13.60
2013,07,26,05,28,13.60
2013,07,26,05,29,13.60
2013,07,26,05,30,13.50
2013,07,26,05,31,13.50
2013,07,26,05,32,13.50
2013,07,26,05,33,13.50
2013,07,26,05,34,13.50
2013,07,26,05,35,13.50
2013,07,26,05,36,13.50
2013,07,26,05,37,13.50
2013,07,26,05,38,13.50
2013,07,26,05,39,13.50
2013,07,26,05,40,13.40
2013,07,26,05,41,13.40
2013,07,26,05,42,13.40
2013,07,26,05,43,13.30
2013,07,26,05,44,13.30
2013,07,26,05,45,13.30
2013,07,26,05,46,13.30
2013,07,26,05,47,13.30
2013,07,26,05,48,13.30
2013,07,26,05,49,13.30
2013,07,26,05,50,13.30
2013,07,26,05,51,13.30
2013,07,26,05,52,13.20
2013,07,26,05,53,13.20
2013,07,26,05,54,13.20
2013,07,26,05,55,13.20
2013,07,26,05,56,13.20
2013,07,26,05,57,13.10
2013,07,26,05,58,13.10
2013,07,26,05,59,13.10
2013,07,26,06,00,13.10
2013,07,26,06,01,13.10
2013,07,26,06,02,13.00
2013,07,26,06,03,13.00
2013,07,26,06,04,13.00
2013,07,26,06,05,13.00
2013,07,26,06,06,12.90
2013,07,26,06,07,12.90
2013,07,26,06,08,12.90
2013,07,26,06,09,12.90
2013,07,26,06,10,12.90
2013,07,26,06,11,12.90
2013,07,26,06,12,12.90
2013,07,26,06,13,12.90
2013,07,26,06,14,12.90
2013,07,26,06,15,12.90
2013,07,26,06,16,12.90
2013,07,26,06,17,12.90
2013,07,26,06,18,12.90
2013,07,26,06,19,12.90
2013,07,26,06,20,12.90
2013,07,26,06,21,12.90
2013,07,26,06,22,12.90
2013,07,26,06,23,12.90
2013,07,26,06,24,12.90
2013,07,26,06,25,12.90
2013,07,26,06,26,12.80
2013,07,26,06,27,12.80
2013,07,26,06,28,12.80
2013,07,26,06,29,12.80
2013,07,26,06,30,12.80
2013,07,26,06,31,12.80
2013,07,26,06,32,12.80
2013,07,26,06,33,12.80
2013,07,26,06,34,12.80
2013,07,26,06,35,12.80
2013,07,26,06,36,12.80
2013,07,26,06,37,12.90
2013,07,26,06,38,12.90
2013,07,26,06,39,12.90
2013,07,26,06,40,12.90
2013,07,26,06,41,12.90
2013,07,26,06,42,13.00
2013,07,26,06,43,13.00
2013,07,26,06,44,13.00
2013,07,26,06,45,13.00
2013,07,26,06,46,13.00
2013,07,26,06,47,13.00
2013,07,26,06,48,13.10
2013,07,26,06,49,13.10
2013,07,26,06,50,13.10
2013,07,26,06,51,13.10
2013,07,26,06,52,13.10
2013,07,26,06,53,13.20
2013,07,26,06,54,13.20
2013,07,26,06,55,13.30
2013,07,26,06,56,13.30
2013,07,26,06,57,13.40
2013,07,26,06,58,13.50
2013,07,26,06,59,13.60
2013,07,26,07,00,13.70
2013,07,26,07,01,13.80
2013,07,26,07,02,13.90
2013,07,26,07,03,14.00
2013,07,26,07,04,14.20
2013,07,26,07,05,14.30
2013,07,26,07,06,14.50
2013,07,26,07,07,14.60
2013,07,26,07,08,14.80
2013,07,26,07,09,14.90
2013,07,26,07,10,15.10
2013,07,26,07,11,15.20
2013,07,26,07,12,15.40
2013,07,26,07,13,15.50
2013,07,26,07,14,15.60
2013,07,26,07,15,15.70
2013,07,26,07,16,15.80
2013,07,26,07,17,15.80
2013,07,26,07,18,15.90
2013,07,26,07,19,16.00
2013,07,26,07,20,16.10
2013,07,26,07,21,16.20
2013,07,26,07,22,16.30
2013,07,26,07,23,16.30
2013,07,26,07,24,16.40
2013,07,26,07,25,16.40
2013,07,26,07,26,16.40
2013,07,26,07,27,16.40
2013,07,26,07,28,16.40
2013,07,26,07,29,16.40
2013,07,26,07,30,16.60
2013,07,26,07,31,16.70
2013,07,26,07,32,16.70
2013,07,26,07,33,16.90
2013,07,26,07,34,16.90
2013,07,26,07,35,17.00
2013,07,26,07,36,17.10
2013,07,26,07,37,17.20
2013,07,26,07,38,17.30
2013,07,26,07,39,17.30
2013,07,26,07,40,17.30
2013,07,26,07,41,17.30
2013,07,26,07,42,17.30
2013,07,26,07,43,17.30
2013,07,26,07,44,17.30
2013,07,26,07,45,17.30
2013,07,26,07,46,17.30
2013,07,26,07,47,17.30
2013,07,26,07,48,17.40
2013,07,26,07,49,17.40
2013,07,26,07,50,17.50
2013,07,26,07,51,17.50
2013,07,26,07,52,17.60
2013,07,26,07,53,17.70
2013,07,26,07,54,17.80
2013,07,26,07,55,17.90
2013,07,26,07,56,18.00
2013,07,26,07,57,18.10
2013,07,26,07,58,18.20
2013,07,26,07,59,18.40
2013,07,26,08,00,18.50
2013,07,26,08,01,18.60
2013,07,26,08,02,18.80
2013,07,26,08,03,18.90
2013,07,26,08,04,19.00
2013,07,26,08,05,19.10
2013,07,26,08,06,19.10
2013,07,26,08,07,19.20
2013,07,26,08,08,19.30
2013,07,26,08,09,19.40
2013,07,26,08,10,19.40
2013,07,26,08,11,19.50
2013,07,26,08,12,19.50
2013,07,26,08,13,19.50
2013,07,26,08,14,19.50
2013,07,26,08,15,19.40
2013,07,26,08,16,19.40
2013,07,26,08,17,19.30
2013,07,26,08,18,19.20
2013,07,26,08,19,19.20
2013,07,26,08,20,19.10
2013,07,26,08,21,19.10
2013,07,26,08,22,19.10
2013,07,26,08,23,19.10
2013,07,26,08,24,19.10
2013,07,26,08,25,19.10
2013,07,26,08,26,19.10
2013,07,26,08,27,19.00
2013,07,26,08,28,18.90
2013,07,26,08,29,18.90
2013,07,26,08,30,18.90
2013,07,26,08,31,18.90
2013,07,26,08,32,18.80
2013,07,26,08,33,18.80
2013,07,26,08,34,18.90
2013,07,26,08,35,18.90
2013,07,26,08,36,18.90
2013,07,26,08,37,18.90
2013,07,26,08,38,18.90
2013,07,26,08,39,19.00
2013,07,26,08,40,19.10
2013,07,26,08,41,19.10
2013,07,26,08,42,19.20
2013,07,26,08,43,19.20
2013,07,26,08,44,19.30
2013,07,26,08,45,19.30
2013,07,26,08,46,19.40
2013,07,26,08,47,19.40
2013,07,26,08,48,19.40
2013,07,26,08,49,19.50
2013,07,26,08,50,19.50
2013,07,26,08,51,19.60
2013,07,26,08,52,19.60
2013,07,26,08,53,19.60
2013,07,26,08,54,19.50
2013,07,26,08,55,19.50
2013,07,26,08,56,19.60
2013,07,26,08,57,19.60
2013,07,26,08,58,19.70
2013,07,26,08,59,19.70
2013,07,26,09,00,19.70
2013,07,26,09,01,19.70
2013,07,26,09,02,19.60
2013,07,26,09,03,19.60
2013,07,26,09,04,19.60
2013,07,26,09,05,19.60
2013,07,26,09,06,19.60
2013,07,26,09,07,19.50
2013,07,26,09,08,19.50
2013,07,26,09,09,19.50
2013,07,26,09,10,19.50
2013,07,26,09,11,19.50
2013,07,26,09,12,19.60
2013,07,26,09,13,19.70
2013,07,26,09,14,19.70
2013,07,26,09,15,19.80
2013,07,26,09,16,19.80
2013,07,26,09,17,19.80
2013,07,26,09,18,19.70
2013,07,26,09,19,19.70
2013,07,26,09,20,19.70
2013,07,26,09,21,19.70
2013,07,26,09,22,19.70
2013,07,26,09,23,19.80
2013,07,26,09,24,19.70
2013,07,26,09,25,19.60
2013,07,26,09,26,19.50
2013,07,26,09,27,19.50
2013,07,26,09,28,19.50
2013,07,26,09,29,19.60
2013,07,26,09,30,19.60
2013,07,26,09,31,19.70
2013,07,26,09,32,19.90
2013,07,26,09,33,20.00
2013,07,26,09,34,20.10
2013,07,26,09,35,20.10
2013,07,26,09,36,20.00
2013,07,26,09,37,19.90
2013,07,26,09,38,19.90
2013,07,26,09,39,19.80
2013,07,26,09,40,19.80
2013,07,26,09,41,19.80
2013,07,26,09,42,19.80
2013,07,26,09,43,19.70
2013,07,26,09,44,19.70
2013,07,26,09,45,19.70
2013,07,26,09,46,19.70
2013,07,26,09,47,19.70
2013,07,26,09,48,19.70
2013,07,26,09,49,19.70
2013,07,26,09,50,19.70
2013,07,26,09,51,19.80
2013,07,26,09,52,19.90
2013,07,26,09,53,19.90
2013,07,26,09,54,20.00
2013,07,26,09,55,20.10
2013,07,26,09,56,20.10
2013,07,26,09,57,20.20
2013,07,26,09,58,20.20
2013,07,26,09,59,20.20
2013,07,26,10,00,20.20
2013,07,26,10,01,20.20
2013,07,26,10,02,20.20
2013,07,26,10,03,20.20
2013,07,26,10,04,20.20
2013,07,26,10,05,20.20
2013,07,26,10,06,20.10
2013,07,26,10,07,20.10
2013,07,26,10,08,20.00
2013,07,26,10,09,19.90
2013,07,26,10,10,19.90
2013,07,26,10,11,19.90
2013,07,26,10,12,19.90
2013,07,26,10,13,19.90
2013,07,26,10,14,19.80
2013,07,26,10,15,19.80
2013,07,26,10,16,19.70
2013,07,26,10,17,19.60
2013,07,26,10,18,19.60
2013,07,26,10,19,19.60
2013,07,26,10,20,19.50
2013,07,26,10,21,19.50
2013,07,26,10,22,19.40
2013,07,26,10,23,19.40
2013,07,26,10,24,19.50
2013,07,26,10,25,19.60
2013,07,26,10,26,19.70
2013,07,26,10,27,19.80
2013,07,26,10,28,19.90
2013,07,26,10,29,20.00
2013,07,26,10,30,20.20
2013,07,26,10,31,20.20
2013,07,26,10,32,20.20
2013,07,26,10,33,20.20
2013,07,26,10,34,20.20
2013,07,26,10,35,20.20
2013,07,26,10,36,20.20
2013,07,26,10,37,20.20
2013,07,26,10,38,20.20
2013,07,26,10,39,20.20
2013,07,26,10,40,20.20
2013,07,26,10,41,20.20
2013,07,26,10,42,20.20
2013,07,26,10,43,20.20
2013,07,26,10,44,20.20
2013,07,26,10,45,20.20
2013,07,26,10,46,20.10
2013,07,26,10,47,20.10
2013,07,26,10,48,20.10
2013,07,26,10,49,19.90
2013,07,26,10,50,19.80
2013,07,26,10,51,19.70
2013,07,26,10,52,19.70
2013,07,26,10,53,19.70
2013,07,26,10,54,19.70
2013,07,26,10,55,19.80
2013,07,26,10,56,19.80
2013,07,26,10,57,19.80
2013,07,26,10,58,19.80
2013,07,26,10,59,19.80
2013,07,26,11,00,19.60
2013,07,26,11,01,19.50
2013,07,26,11,02,19.50
2013,07,26,11,03,19.40
2013,07,26,11,04,19.40
2013,07,26,11,05,19.30
2013,07,26,11,06,19.40
2013,07,26,11,07,19.40
2013,07,26,11,08,19.50
2013,07,26,11,09,19.60
2013,07,26,11,10,19.60
2013,07,26,11,11,19.60
2013,07,26,11,12,19.50
2013,07,26,11,13,19.40
2013,07,26,11,14,19.30
2013,07,26,11,15,19.30
2013,07,26,11,16,19.20
2013,07,26,11,17,19.20
2013,07,26,11,18,19.20
2013,07,26,11,19,19.20
2013,07,26,11,20,19.20
2013,07,26,11,21,19.30
2013,07,26,11,22,19.30
2013,07,26,11,23,19.40
2013,07,26,11,24,19.50
2013,07,26,11,25,19.70
2013,07,26,11,26,19.70
2013,07,26,11,27,19.70
2013,07,26,11,28,19.80
2013,07,26,11,29,19.80
2013,07,26,11,30,19.90
2013,07,26,11,31,20.00
2013,07,26,11,32,20.10
2013,07,26,11,33,20.10
2013,07,26,11,34,20.10
2013,07,26,11,35,20.20
2013,07,26,11,36,20.20
2013,07,26,11,37,20.10
2013,07,26,11,38,20.00
2013,07,26,11,39,19.90
2013,07,26,11,40,19.90
2013,07,26,11,41,19.90
2013,07,26,11,42,19.90
2013,07,26,11,43,19.90
2013,07,26,11,44,20.00
2013,07,26,11,45,20.20
2013,07,26,11,46,20.20
2013,07,26,11,47,20.20
2013,07,26,11,48,20.00
2013,07,26,11,49,19.90
2013,07,26,11,50,19.70
2013,07,26,11,51,19.50
2013,07,26,11,52,19.40
2013,07,26,11,53,19.30
2013,07,26,11,54,19.20
2013,07,26,11,55,19.20
2013,07,26,11,56,19.10
2013,07,26,11,57,19.10
2013,07,26,11,58,19.10
2013,07,26,11,59,19.10
2013,07,26,12,00,19.10
2013,07,26,12,01,19.10
2013,07,26,12,02,19.20
2013,07,26,12,03,19.30
2013,07,26,12,04,19.50
2013,07,26,12,05,19.70
2013,07,26,12,06,19.90
2013,07,26,12,07,19.90
2013,07,26,12,08,20.10
2013,07,26,12,09,20.20
2013,07,26,12,10,20.10
2013,07,26,12,11,20.10
2013,07,26,12,12,20.10
2013,07,26,12,13,20.20
2013,07,26,12,14,20.10
2013,07,26,12,15,19.90
2013,07,26,12,16,19.90
2013,07,26,12,17,20.00
2013,07,26,12,18,20.10
2013,07,26,12,19,20.20
2013,07,26,12,20,20.40
2013,07,26,12,21,20.60
2013,07,26,12,22,20.80
2013,07,26,12,23,20.90
2013,07,26,12,24,21.10
2013,07,26,12,25,21.20
2013,07,26,12,26,21.30
2013,07,26,12,27,21.40
2013,07,26,12,28,21.50
2013,07,26,12,29,21.60
2013,07,26,12,30,21.70
2013,07,26,12,31,21.70
2013,07,26,12,32,21.80
2013,07,26,12,33,22.00
2013,07,26,12,34,22.30
2013,07,26,12,35,22.40
2013,07,26,12,36,22.60
2013,07,26,12,37,22.80
2013,07,26,12,38,23.00
2013,07,26,12,39,23.20
2013,07,26,12,40,23.30
2013,07,26,12,41,23.30
2013,07,26,12,42,23.30
2013,07,26,12,43,23.40
2013,07,26,12,44,23.40
2013,07,26,12,45,23.40
2013,07,26,12,46,23.30
2013,07,26,12,47,23.30
2013,07,26,12,48,23.30
2013,07,26,12,49,23.20
2013,07,26,12,50,23.10
2013,07,26,12,51,23.10
2013,07,26,12,52,23.10
2013,07,26,12,53,23.20
2013,07,26,12,54,23.20
2013,07,26,12,55,23.20
2013,07,26,12,56,23.20
2013,07,26,12,57,23.20
2013,07,26,12,58,23.20
2013,07,26,12,59,23.10
2013,07,26,13,00,23.10
2013,07,26,13,01,23.10
2013,07,26,13,02,23.20
2013,07,26,13,03,23.30
2013,07,26,13,04,23.30
2013,07,26,13,05,23.30
2013,07,26,13,06,23.30
2013,07,26,13,07,23.30
2013,07,26,13,08,23.30
2013,07,26,13,09,23.30
2013,07,26,13,10,23.30
2013,07,26,13,11,23.30
2013,07,26,13,12,23.30
2013,07,26,13,13,23.30
2013,07,26,13,14,23.30
2013,07,26,13,15,23.30
2013,07,26,13,16,23.30
2013,07,26,13,17,23.30
2013,07,26,13,18,23.30
2013,07,26,13,19,23.30
2013,07,26,13,20,23.30
2013,07,26,13,21,23.30
2013,07,26,13,22,23.40
2013,07,26,13,23,23.50
2013,07,26,13,24,23.60
2013,07,26,13,25,23.60
2013,07,26,13,26,23.70
2013,07,26,13,27,23.70
2013,07,26,13,28,23.80
2013,07,26,13,29,23.90
2013,07,26,13,30,23.90
2013,07,26,13,31,24.10
2013,07,26,13,32,24.20
2013,07,26,13,33,24.30
2013,07,26,13,34,24.40
2013,07,26,13,35,24.40
2013,07,26,13,36,24.40
2013,07,26,13,37,24.40
2013,07,26,13,38,24.40
2013,07,26,13,39,24.40
2013,07,26,13,40,24.30
2013,07,26,13,41,24.20
2013,07,26,13,42,24.20
2013,07,26,13,43,24.20
2013,07,26,13,44,24.10
2013,07,26,13,45,24.10
2013,07,26,13,46,24.10
2013,07,26,13,47,24.10
2013,07,26,13,48,24.10
2013,07,26,13,49,24.10
2013,07,26,13,50,24.10
2013,07,26,13,51,24.10
2013,07,26,13,52,24.00
2013,07,26,13,53,24.00
2013,07,26,13,54,24.10
2013,07,26,13,55,24.10
2013,07,26,13,56,24.10
2013,07,26,13,57,24.10
2013,07,26,13,58,24.10
2013,07,26,13,59,24.20
2013,07,26,14,00,24.10
2013,07,26,14,01,24.10
2013,07,26,14,02,24.10
2013,07,26,14,03,24.10
2013,07,26,14,04,24.20
2013,07,26,14,05,24.20
2013,07,26,14,06,24.30
2013,07,26,14,07,24.30
2013,07,26,14,08,24.30
2013,07,26,14,09,24.30
2013,07,26,14,10,24.40
2013,07,26,14,11,24.40
2013,07,26,14,12,24.50
2013,07,26,14,13,24.50
2013,07,26,14,14,24.60
2013,07,26,14,15,24.70
2013,07,26,14,16,24.80
2013,07,26,14,17,24.90
2013,07,26,14,18,25.00
2013,07,26,14,19,25.10
2013,07,26,14,20,25.20
2013,07,26,14,21,25.20
2013,07,26,14,22,25.30
2013,07,26,14,23,25.30
2013,07,26,14,24,25.30
2013,07,26,14,25,25.30
2013,07,26,14,26,25.30
2013,07,26,14,27,25.30
2013,07,26,14,28,25.40
2013,07,26,14,29,25.40
2013,07,26,14,30,25.50
2013,07,26,14,31,25.50
2013,07,26,14,32,25.60
2013,07,26,14,33,25.60
2013,07,26,14,34,25.70
2013,07,26,14,35,25.80
2013,07,26,14,36,25.90
2013,07,26,14,37,26.00
2013,07,26,14,38,26.10
2013,07,26,14,39,26.20
2013,07,26,14,40,26.30
2013,07,26,14,41,26.30
2013,07,26,14,42,26.50
2013,07,26,14,43,26.60
2013,07,26,14,44,26.60
2013,07,26,14,45,26.70
2013,07,26,14,46,26.70
2013,07,26,14,47,26.70
2013,07,26,14,48,26.70
2013,07,26,14,49,26.70
2013,07,26,14,50,26.70
2013,07,26,14,51,26.70
2013,07,26,14,52,26.60
2013,07,26,14,53,26.60
2013,07,26,14,54,26.60
2013,07,26,14,55,26.60
2013,07,26,14,56,26.60
2013,07,26,14,57,26.60
2013,07,26,14,58,26.60
2013,07,26,14,59,26.40
2013,07,26,15,00,26.30
2013,07,26,15,01,26.30
2013,07,26,15,02,26.20
2013,07,26,15,03,26.20
2013,07,26,15,04,26.10
2013,07,26,15,05,26.10
2013,07,26,15,06,26.10
2013,07,26,15,07,26.10
2013,07,26,15,08,26.10
2013,07,26,15,09,26.00
2013,07,26,15,10,25.90
2013,07,26,15,11,25.90
2013,07,26,15,12,26.00
2013,07,26,15,13,26.10
2013,07,26,15,14,26.00
2013,07,26,15,15,26.00
2013,07,26,15,16,26.00
2013,07,26,15,17,25.90
2013,07,26,15,18,25.80
2013,07,26,15,19,25.70
2013,07,26,15,20,25.80
2013,07,26,15,21,25.80
2013,07,26,15,22,25.90
2013,07,26,15,23,26.00
2013,07,26,15,24,26.10
2013,07,26,15,25,26.20
2013,07,26,15,26,26.30
2013,07,26,15,27,26.40
2013,07,26,15,28,26.50
2013,07,26,15,29,26.60
2013,07,26,15,30,26.60
2013,07,26,15,31,26.60
2013,07,26,15,32,26.60
2013,07,26,15,33,26.60
2013,07,26,15,34,26.60
2013,07,26,15,35,26.60
2013,07,26,15,36,26.60
2013,07,26,15,37,26.60
2013,07,26,15,38,26.60
2013,07,26,15,39,26.60
2013,07,26,15,40,26.60
2013,07,26,15,41,26.60
2013,07,26,15,42,26.60
2013,07,26,15,43,26.60
2013,07,26,15,44,26.50
2013,07,26,15,45,26.40
2013,07,26,15,46,26.30
2013,07,26,15,47,26.30
2013,07,26,15,48,26.30
2013,07,26,15,49,26.30
2013,07,26,15,50,26.20
2013,07,26,15,51,26.20
2013,07,26,15,52,26.20
2013,07,26,15,53,26.20
2013,07,26,15,54,26.20
2013,07,26,15,55,26.20
2013,07,26,15,56,26.30
2013,07,26,15,57,26.40
2013,07,26,15,58,26.40
2013,07,26,15,59,26.30
2013,07,26,16,00,26.30
2013,07,26,16,01,26.30
2013,07,26,16,02,26.30
2013,07,26,16,03,26.20
2013,07,26,16,04,26.20
2013,07,26,16,05,26.20
2013,07,26,16,06,26.20
2013,07,26,16,07,26.10
2013,07,26,16,08,26.10
2013,07,26,16,09,25.90
2013,07,26,16,10,25.80
2013,07,26,16,11,25.80
2013,07,26,16,12,25.70
2013,07,26,16,13,25.50
2013,07,26,16,14,25.40
2013,07,26,16,15,25.30
2013,07,26,16,16,25.20
2013,07,26,16,17,25.20
2013,07,26,16,18,25.20
2013,07,26,16,19,25.20
2013,07,26,16,20,25.20
2013,07,26,16,21,25.20
2013,07,26,16,22,25.30
2013,07,26,16,23,25.30
2013,07,26,16,24,25.40
2013,07,26,16,25,25.40
2013,07,26,16,26,25.30
2013,07,26,16,27,25.30
2013,07,26,16,28,25.30
2013,07,26,16,29,25.30
2013,07,26,16,30,25.20
2013,07,26,16,31,25.10
2013,07,26,16,32,25.00
2013,07,26,16,33,25.00
2013,07,26,16,34,25.00
2013,07,26,16,35,24.90
2013,07,26,16,36,24.90
2013,07,26,16,37,24.80
2013,07,26,16,38,24.70
2013,07,26,16,39,24.70
2013,07,26,16,40,24.60
2013,07,26,16,41,24.60
2013,07,26,16,42,24.60
2013,07,26,16,43,24.50
2013,07,26,16,44,24.50
2013,07,26,16,45,24.40
2013,07,26,16,46,24.40
2013,07,26,16,47,24.30
2013,07,26,16,48,24.30
2013,07,26,16,49,24.40
2013,07,26,16,50,24.40
2013,07,26,16,51,24.40
2013,07,26,16,52,24.50
2013,07,26,16,53,24.50
2013,07,26,16,54,24.50
2013,07,26,16,55,24.40
2013,07,26,16,56,24.30
2013,07,26,16,57,24.30
2013,07,26,16,58,24.30
2013,07,26,16,59,24.30
2013,07,26,17,00,24.30
2013,07,26,17,01,24.40
2013,07,26,17,02,24.40
2013,07,26,17,03,24.50
2013,07,26,17,04,24.60
2013,07,26,17,05,24.60
2013,07,26,17,06,24.70
2013,07,26,17,07,24.70
2013,07,26,17,08,24.70
2013,07,26,17,09,24.70
2013,07,26,17,10,24.60
2013,07,26,17,11,24.60
2013,07,26,17,12,24.60
2013,07,26,17,13,24.50
2013,07,26,17,14,24.60
2013,07,26,17,15,24.60
2013,07,26,17,16,24.50
2013,07,26,17,17,24.50
2013,07,26,17,18,24.50
2013,07,26,17,19,24.60
2013,07,26,17,20,24.60
2013,07,26,17,21,24.60
2013,07,26,17,22,24.50